Regional Weather Roundup
Issued by NWS Newport/Morehead, NC

Current Version | Previous Version | Graphics & Text | Print | Product List | Glossary On
Versions: 1 2 3 4 5 6 7 8 9 10 11 12 13 14 15 16 17 18 19 20 21 22 23 24 25 26 27 28 29 30 31 32 33 34 35 36 37 38 39 40 41 42 43 44 45 46 47 48 49 50
683 ASUS42 KMHX 210025 RWRMHX WEATHER ROUNDUP FOR EASTERN NORTH CAROLINA NATIONAL WEATHER SERVICE NEWPORT/MOREHEAD CITY NC 800 PM EDT FRI APR 20 2018 NOTE: "FAIR" INDICATES FEW OR NO CLOUDS BELOW 12,000 FEET WITH NO SIGNIFICANT WEATHER AND/OR OBSTRUCTIONS TO VISIBILITY NCZ015>017-031-032-045>047-102-103-210100- NORTH COAST CITY SKY/WX TMP DP RH WIND PRES REMARKS EDENTON FAIR 52 42 67 E3 30.32R ELIZABETH CITY FAIR 50 37 61 E7 30.32R KITTY HAWK FAIR 46 34 63 E5 30.31R MANTEO FAIR 46 34 62 E7 30.33R $$ NCZ045>047-081-094-103-104-210100- CENTRAL COAST CITY SKY/WX TMP DP RH WIND PRES REMARKS FRISCO FAIR 47 36 65 E5 30.32R $$ NCZ095-097-098-100-101-210100- SOUTHERN COAST CITY SKY/WX TMP DP RH WIND PRES REMARKS BEAUFORT FAIR 54 38 54 VRB3 30.30R CEDAR ISLAND NOT AVBL JACKSONVILLE FAIR 56 39 53 SE7 30.29R PINEY ISLAND NOT AVBL WILMINGTON FAIR 55 38 52 S3 30.29R $$ NCZ011>013-027>030-043-044-078>080-089-090>093-098-210100- COASTAL PLAIN CITY SKY/WX TMP DP RH WIND PRES REMARKS AHOSKIE FAIR 50 32 49 CALM 30.31R CLINTON FAIR 57 34 41 CALM 30.30R ELIZABETHTOWN FAIR 60 31 34 MISG 30.28S GOLDSBORO FAIR 59 28 31 E5 30.27S GREENVILLE FAIR 54 30 40 CALM 30.31R HAVELOCK CLEAR 54 41 61 S7 30.31R KENANSVILLE FAIR 54 36 50 CALM 30.29R KINSTON FAIR 55 32 41 CALM 30.30R NEW BERN FAIR 54 32 43 N6 30.31R RICHLANDS FAIR 55 37 50 CALM 30.30R ROCKY MOUNT FAIR 54 30 40 CALM 30.30R WASHINGTON FAIR 53 33 46 CALM 30.31R WHITEVILLE FAIR 58 36 43 CALM 30.27S $$ AMZ130-135-150-152-154-156-158-170-250-252-270-ANZ085-086-088-633-658-670-210100- MARINE OBSERVATIONS STATION/POSITION TIME TEMP WIND PRES WAVE SWELL AIR SEA DIR/SP/G HT/PER HT/PER (UTC) (F) (DEG/KT/KT) (MB) (FT/S) (FT/S) CHESAPEAKE LIGHT NOT AVBL 64 E VA BEACH 2350 47 49 360/ 4/ 6 1027.0 4/ 7 3/ 7 DUCK 0000 48 53 100/ 7/ 8 1026.3 2 E DUCK 0000 51 N/A 3/ 6 2/14 OREGON INLET 0000 47 54 50/ 8/ 13 1026.6 13E OREGON INLT 2348 50 N/A 4/ 7 3/ 7 HATTERAS CG 0000 48 61 70/ 5/ 7 1026.7 DIAMOND BUOY 0010 53 71 40/ 10/ 14 1027.0 CAPE LOOKOUT 0000 70/ 9/ 11 1026.3 BEAUFORT LAB 0000 57 64 170/ 5/ 6 1026.1 30 SE NEW RVR IN 0008 57 66 110/ 8/ 10 1026.1 30 SE NEW RVR IN 0000 66 N/A 3/ 9 27 SE WRIGHTSVLE 0008 58 66 110/ 8/ 14 1025.9 5 SE WRIGHTSVLE 0008 58 60 170/ 4/ 6 1025.6 225 S CAPE HAT 0000 64 72 30/ 16/ 21 1023.7 41 SE CHARLESTON 0000 61 67 60/ 16/ 19 1025.1 $$

USA.gov is the U.S. government's official web portal to all federal, state and local government web resources and services.